LHA326 SGAS-SBGL

Flight info

Callsign LHA326
Flight time N/A
Altitude 39000
Route ROLOK ROLOK UM548 KOXAG UM400 KOLBI PABE1A
Aircraft A339/H-SDE1E2FGHIJ1J4RWXYZE3/S

Departure

Time N/A
Airport Silvio Pettirossi International Airport (SGAS)

Arrival

Time 2026-05-04 12:16
Airport Rio Galeão – Tom Jobim International Airport (SBGL)
Time Latitude Longitude Altitude Speed Heading
2026-05-04 10:54 -25.58812 -53.62439 39074 ft 534 kts 95°
2026-05-04 10:54 -25.58839 -53.58334 39077 ft 534 kts 95°
2026-05-04 10:56 -25.58996 -53.25524 39091 ft 535 kts 94°
2026-05-04 10:57 -25.59023 -53.17355 39093 ft 534 kts 94°
2026-05-04 10:57 -25.59046 -53.09108 39100 ft 534 kts 94°
2026-05-04 10:58 -25.59063 -53.00948 39109 ft 535 kts 94°
2026-05-04 10:58 -25.59072 -52.92756 39109 ft 534 kts 94°
2026-05-04 10:59 -25.59078 -52.84516 39114 ft 534 kts 94°
2026-05-04 10:59 -25.59081 -52.76360 39119 ft 534 kts 94°
2026-05-04 11:00 -25.59080 -52.68119 39116 ft 534 kts 94°
2026-05-04 11:02 -25.59030 -52.35341 39135 ft 533 kts 94°
2026-05-04 11:05 -25.58738 -51.73642 39152 ft 533 kts 93°
2026-05-04 11:06 -25.58679 -51.65313 39162 ft 533 kts 94°
2026-05-04 11:06 -25.58617 -51.57032 39159 ft 533 kts 94°
2026-05-04 11:10 -25.58060 -50.99278 39185 ft 533 kts 93°
2026-05-04 11:12 -25.57618 -50.66320 39194 ft 533 kts 93°
2026-05-04 11:12 -25.57500 -50.58053 39196 ft 533 kts 92°
2026-05-04 11:13 -25.57375 -50.49882 39197 ft 533 kts 93°
2026-05-04 11:13 -25.57245 -50.41641 39197 ft 533 kts 93°
2026-05-04 11:14 -25.57223 -50.40237 39196 ft 533 kts 93°
2026-05-04 11:16 -25.56463 -50.00565 39193 ft 533 kts 90°
2026-05-04 11:16 -25.56088 -49.92350 39192 ft 533 kts 90°
2026-05-04 11:17 -25.55729 -49.84085 39195 ft 532 kts 91°
2026-05-04 11:19 -25.54306 -49.51307 39207 ft 533 kts 90°
2026-05-04 11:19 -25.53934 -49.43090 39213 ft 533 kts 90°
2026-05-04 11:20 -25.53654 -49.34811 39220 ft 532 kts 91°
2026-05-04 11:20 -25.53464 -49.26610 39221 ft 532 kts 91°
2026-05-04 11:22 -25.49295 -48.93908 39232 ft 536 kts 81°
2026-05-04 11:23 -25.47895 -48.85735 39216 ft 536 kts 81°
2026-05-04 11:25 -25.42976 -48.57316 39181 ft 536 kts 81°
2026-05-04 11:25 -25.41548 -48.49117 39178 ft 536 kts 81°
2026-05-04 11:27 -25.35080 -48.12413 39174 ft 537 kts 80°
2026-05-04 11:28 -25.33638 -48.04276 39167 ft 537 kts 80°
2026-05-04 11:28 -25.32196 -47.96179 39164 ft 537 kts 80°
2026-05-04 11:29 -25.30752 -47.88082 39161 ft 536 kts 80°
2026-05-04 11:29 -25.29298 -47.79965 39164 ft 537 kts 80°
2026-05-04 11:33 -25.19025 -47.23472 39165 ft 536 kts 79°
2026-05-04 11:33 -25.17549 -47.15438 39167 ft 536 kts 79°
2026-05-04 11:34 -25.16069 -47.07417 39166 ft 536 kts 79°
2026-05-04 11:34 -25.14269 -46.99405 39168 ft 536 kts 72°
2026-05-04 11:35 -25.11626 -46.91798 39167 ft 535 kts 64°
2026-05-04 11:35 -25.08365 -46.84453 39164 ft 534 kts 62°
2026-05-04 11:36 -25.05054 -46.77104 39166 ft 534 kts 62°
2026-05-04 11:36 -25.01791 -46.69779 39166 ft 534 kts 63°
2026-05-04 11:37 -24.98523 -46.62462 39164 ft 534 kts 62°
2026-05-04 11:37 -24.95230 -46.55114 39164 ft 535 kts 62°
2026-05-04 11:38 -24.91925 -46.47740 39167 ft 535 kts 62°
2026-05-04 11:38 -24.88613 -46.40351 39172 ft 535 kts 62°
2026-05-04 11:39 -24.85324 -46.33026 39172 ft 534 kts 62°
2026-05-04 11:41 -24.73797 -46.07453 39178 ft 534 kts 62°
2026-05-04 11:41 -24.70504 -46.00172 39178 ft 534 kts 61°
2026-05-04 11:41 -24.68634 -45.96667 39168 ft 529 kts 50°
2026-05-04 11:42 -24.66328 -45.93534 38985 ft 527 kts 45°
2026-05-04 11:42 -24.63916 -45.90517 38651 ft 525 kts 44°
2026-05-04 11:42 -24.61472 -45.87504 38191 ft 524 kts 44°
2026-05-04 11:42 -24.59075 -45.84535 37678 ft 523 kts 44°
2026-05-04 11:43 -24.56661 -45.81515 37191 ft 521 kts 45°
2026-05-04 11:43 -24.54303 -45.78542 36658 ft 521 kts 45°
2026-05-04 11:43 -24.51927 -45.75534 36130 ft 520 kts 45°
2026-05-04 11:43 -24.49592 -45.72567 35575 ft 519 kts 45°
2026-05-04 11:44 -24.47232 -45.69566 35015 ft 519 kts 45°
2026-05-04 11:44 -24.44875 -45.66571 34449 ft 518 kts 45°
2026-05-04 11:44 -24.42537 -45.63599 33894 ft 517 kts 45°
2026-05-04 11:44 -24.40170 -45.60594 33347 ft 517 kts 45°
2026-05-04 11:45 -24.37820 -45.57613 32936 ft 518 kts 45°
2026-05-04 11:45 -24.35473 -45.54637 32562 ft 518 kts 45°
2026-05-04 11:45 -24.33121 -45.51654 32215 ft 516 kts 45°
2026-05-04 11:45 -24.30790 -45.48701 31800 ft 513 kts 45°
2026-05-04 11:46 -24.28453 -45.45744 31354 ft 510 kts 46°
2026-05-04 11:46 -24.26131 -45.42804 30960 ft 505 kts 45°
2026-05-04 11:46 -24.23843 -45.39908 30582 ft 501 kts 45°
2026-05-04 11:46 -24.21579 -45.37044 30194 ft 496 kts 45°
2026-05-04 11:47 -24.19336 -45.34211 29797 ft 492 kts 45°
2026-05-04 11:47 -24.17110 -45.31401 29441 ft 487 kts 45°
2026-05-04 11:47 -24.14911 -45.28625 29081 ft 483 kts 45°
2026-05-04 11:47 -24.12720 -45.25861 28718 ft 479 kts 45°
2026-05-04 11:48 -24.10529 -45.23099 28383 ft 474 kts 45°
2026-05-04 11:48 -24.08392 -45.20407 28060 ft 469 kts 45°
2026-05-04 11:48 -24.06249 -45.17709 27716 ft 465 kts 45°
2026-05-04 11:48 -24.04160 -45.15081 27392 ft 461 kts 45°
2026-05-04 11:49 -24.02048 -45.12426 27043 ft 458 kts 45°
2026-05-04 11:49 -23.99953 -45.09792 26711 ft 454 kts 45°
2026-05-04 11:49 -23.97876 -45.07180 26387 ft 450 kts 45°
2026-05-04 11:49 -23.95851 -45.04637 26063 ft 446 kts 45°
2026-05-04 11:50 -23.93800 -45.02064 25743 ft 442 kts 45°
2026-05-04 11:50 -23.91778 -44.99529 25433 ft 438 kts 45°
2026-05-04 11:50 -23.89790 -44.97038 25101 ft 435 kts 45°
2026-05-04 11:50 -23.87818 -44.94566 24792 ft 432 kts 45°
2026-05-04 11:51 -23.85860 -44.92115 24479 ft 428 kts 45°
2026-05-04 11:51 -23.83888 -44.89648 24135 ft 426 kts 45°
2026-05-04 11:51 -23.81953 -44.87229 23797 ft 423 kts 45°
2026-05-04 11:51 -23.80018 -44.84811 23467 ft 420 kts 45°
2026-05-04 11:52 -23.78108 -44.82424 23147 ft 418 kts 45°
2026-05-04 11:52 -23.76195 -44.80035 22806 ft 415 kts 45°
2026-05-04 11:52 -23.74303 -44.77672 22474 ft 412 kts 45°
2026-05-04 11:52 -23.72424 -44.75326 22140 ft 409 kts 45°
2026-05-04 11:53 -23.70572 -44.73017 21813 ft 406 kts 45°
2026-05-04 11:53 -23.68702 -44.70686 21484 ft 404 kts 45°
2026-05-04 11:53 -23.66862 -44.68393 21140 ft 402 kts 45°
2026-05-04 11:53 -23.65037 -44.66118 20789 ft 400 kts 45°
2026-05-04 11:55 -23.52421 -44.50434 18488 ft 385 kts 46°
2026-05-04 11:55 -23.50656 -44.48244 18136 ft 384 kts 46°
2026-05-04 11:56 -23.48867 -44.46025 17797 ft 382 kts 46°
2026-05-04 11:56 -23.47052 -44.43775 17467 ft 380 kts 46°
2026-05-04 11:56 -23.45281 -44.41580 17145 ft 378 kts 46°
2026-05-04 11:56 -23.43547 -44.39431 16841 ft 376 kts 46°
2026-05-04 11:57 -23.41809 -44.37278 16520 ft 374 kts 46°
2026-05-04 11:57 -23.40094 -44.35156 16209 ft 372 kts 46°
2026-05-04 11:57 -23.38362 -44.33012 15881 ft 370 kts 46°
2026-05-04 11:57 -23.36651 -44.30895 15541 ft 368 kts 46°
2026-05-04 11:58 -23.34931 -44.28772 15217 ft 366 kts 46°
2026-05-04 11:58 -23.33241 -44.26685 14899 ft 364 kts 47°
2026-05-04 11:58 -23.31549 -44.24595 14572 ft 362 kts 47°
2026-05-04 11:58 -23.29859 -44.22509 14272 ft 359 kts 47°
2026-05-04 11:59 -23.28199 -44.20458 13966 ft 357 kts 47°
2026-05-04 11:59 -23.26574 -44.18454 13662 ft 355 kts 47°
2026-05-04 11:59 -23.24928 -44.16425 13364 ft 352 kts 48°
2026-05-04 11:59 -23.23302 -44.14419 13054 ft 350 kts 48°
2026-05-04 12:00 -23.21672 -44.12408 12738 ft 349 kts 47°
2026-05-04 12:00 -23.20056 -44.10416 12411 ft 347 kts 47°
2026-05-04 12:00 -23.18454 -44.08441 12085 ft 346 kts 47°
2026-05-04 12:00 -23.16824 -44.06434 11746 ft 344 kts 47°
2026-05-04 12:01 -23.15243 -44.04488 11433 ft 342 kts 47°
2026-05-04 12:01 -23.13662 -44.02544 11111 ft 340 kts 47°
2026-05-04 12:02 -23.05223 -43.92164 10179 ft 260 kts 47°
2026-05-04 12:03 -23.04054 -43.90728 10083 ft 247 kts 47°
2026-05-04 12:03 -23.02908 -43.89322 9897 ft 243 kts 46°
2026-05-04 12:03 -23.01771 -43.87929 9699 ft 242 kts 46°
2026-05-04 12:03 -23.00662 -43.86568 9485 ft 241 kts 46°
2026-05-04 12:04 -22.99535 -43.85190 9387 ft 237 kts 46°
2026-05-04 12:04 -22.98455 -43.83866 9147 ft 233 kts 46°
2026-05-04 12:04 -22.97380 -43.82547 8922 ft 229 kts 46°
2026-05-04 12:04 -22.96322 -43.81250 8704 ft 225 kts 46°
2026-05-04 12:05 -22.95297 -43.79997 8454 ft 221 kts 46°
2026-05-04 12:05 -22.94291 -43.78756 8221 ft 214 kts 49°
2026-05-04 12:05 -22.93479 -43.77426 8212 ft 210 kts 61°
2026-05-04 12:05 -22.92942 -43.75950 8214 ft 212 kts 71°
2026-05-04 12:06 -22.92539 -43.74403 8233 ft 212 kts 73°
2026-05-04 12:06 -22.92161 -43.72852 8220 ft 212 kts 73°
2026-05-04 12:06 -22.91779 -43.71281 8218 ft 212 kts 73°
2026-05-04 12:06 -22.91395 -43.69727 8214 ft 211 kts 73°
2026-05-04 12:07 -22.91005 -43.68161 8148 ft 213 kts 73°
2026-05-04 12:07 -22.90618 -43.66617 7941 ft 210 kts 72°
2026-05-04 12:07 -22.90230 -43.65073 7722 ft 208 kts 73°
2026-05-04 12:07 -22.89850 -43.63569 7500 ft 206 kts 72°
2026-05-04 12:08 -22.89475 -43.62075 7270 ft 205 kts 72°
2026-05-04 12:08 -22.89099 -43.60583 7038 ft 203 kts 72°
2026-05-04 12:08 -22.88726 -43.59111 6809 ft 202 kts 72°
2026-05-04 12:08 -22.88356 -43.57645 6575 ft 201 kts 71°
2026-05-04 12:09 -22.87984 -43.56180 6310 ft 201 kts 71°
2026-05-04 12:09 -22.87612 -43.54721 6014 ft 204 kts 71°
2026-05-04 12:09 -22.87229 -43.53223 5629 ft 209 kts 71°
2026-05-04 12:09 -22.86844 -43.51720 5276 ft 208 kts 72°
2026-05-04 12:10 -22.86464 -43.50224 4876 ft 202 kts 72°
2026-05-04 12:10 -22.86091 -43.48761 4412 ft 199 kts 72°
2026-05-04 12:10 -22.85749 -43.47334 3987 ft 195 kts 74°
2026-05-04 12:10 -22.85424 -43.45933 3717 ft 184 kts 73°
2026-05-04 12:11 -22.85114 -43.44642 3492 ft 173 kts 73°
2026-05-04 12:11 -22.84804 -43.43400 3255 ft 164 kts 73°
2026-05-04 12:11 -22.84512 -43.42244 3045 ft 155 kts 72°
2026-05-04 12:11 -22.84230 -43.41151 2847 ft 147 kts 73°
2026-05-04 12:12 -22.83956 -43.40101 2670 ft 144 kts 72°
2026-05-04 12:12 -22.83682 -43.39053 2488 ft 141 kts 73°
2026-05-04 12:12 -22.83421 -43.38047 2310 ft 136 kts 73°
2026-05-04 12:12 -22.83162 -43.37051 2147 ft 138 kts 73°
2026-05-04 12:13 -22.82901 -43.36046 1979 ft 140 kts 73°
2026-05-04 12:14 -22.81066 -43.28859 713 ft 146 kts 72°
2026-05-04 12:15 -22.80770 -43.27792 522 ft 149 kts 75°
2026-05-04 12:15 -22.80515 -43.26705 351 ft 148 kts 73°
2026-05-04 12:15 -22.80209 -43.25630 121 ft 145 kts 76°
2026-05-04 12:15 -22.79954 -43.24620 40 ft 110 kts 74°
2026-05-04 12:16 -22.79820 -43.24139 40 ft 27 kts 75°
2026-05-04 12:16 -22.79755 -43.23870 40 ft 49 kts 74°
2026-05-04 12:16 -22.79672 -43.23524 40 ft 40 kts 76°
2026-05-04 12:16 -22.79663 -43.23280 40 ft 22 kts 93°
2026-05-04 12:17 -22.79674 -43.23115 40 ft 21 kts 95°
2026-05-04 12:17 -22.79737 -43.23001 40 ft 15 kts 180°
2026-05-04 12:17 -22.79800 -43.23080 40 ft 15 kts 252°
2026-05-04 12:17 -22.79833 -43.23212 40 ft 22 kts 255°
2026-05-04 12:18 -22.79884 -43.23411 40 ft 31 kts 253°
2026-05-04 12:18 -22.79941 -43.23642 40 ft 31 kts 254°
2026-05-04 12:18 -22.80000 -43.23864 40 ft 30 kts 254°
2026-05-04 12:18 -22.80054 -43.24081 40 ft 29 kts 254°
2026-05-04 12:19 -22.80107 -43.24287 40 ft 27 kts 254°
2026-05-04 12:19 -22.80173 -43.24478 40 ft 26 kts 231°
2026-05-04 12:19 -22.80301 -43.24607 40 ft 22 kts 242°
2026-05-04 12:19 -22.80334 -43.24750 40 ft 18 kts 249°
2026-05-04 12:20 -22.80382 -43.24913 40 ft 26 kts 256°
2026-05-04 12:20 -22.80429 -43.25104 40 ft 26 kts 255°
2026-05-04 12:20 -22.80489 -43.25284 40 ft 25 kts 239°
2026-05-04 12:20 -22.80606 -43.25418 40 ft 24 kts 218°
2026-05-04 12:21 -22.80742 -43.25527 40 ft 23 kts 214°
2026-05-04 12:21 -22.80876 -43.25629 40 ft 23 kts 217°
2026-05-04 12:21 -22.81010 -43.25729 40 ft 22 kts 213°
2026-05-04 12:21 -22.81139 -43.25825 40 ft 17 kts 202°
2026-05-04 12:22 -22.81217 -43.25780 40 ft 17 kts 126°
2026-05-04 12:22 -22.81331 -43.25612 40 ft 34 kts 125°
2026-05-04 12:22 -22.81463 -43.25406 40 ft 32 kts 125°
2026-05-04 12:22 -22.81557 -43.25234 40 ft 17 kts 84°
2026-05-04 12:23 -22.81477 -43.25151 40 ft 15 kts 38°
2026-05-04 12:23 -22.81453 -43.25059 40 ft 13 kts 115°
2026-05-04 12:23 -22.81468 -43.24966 40 ft 10 kts 58°
2026-05-04 12:23 -22.81460 -43.24916 40 ft 6 kts 101°
2026-05-04 12:24 -22.81457 -43.24861 40 ft 8 kts 82°
2026-05-04 12:24 -22.81454 -43.24835 40 ft 0 kts 81°